<?xml version="1.0" encoding="UTF-8" standalone="no" ?>
<gpx xmlns="http://www.topografix.com/GPX/1/1" xmlns:xsi="http://www.w3.org/2001/XMLSchema-instance" xsi:schemaLocation="http://www.topografix.com/GPX/1/1 http://www.topografix.com/GPX/1/1/gpx.xsd" version="1.1" creator="VisuGPX - https://www.visugpx.com">
  <metadata>
    <name>La chapelle Parnes Breuil Buhy La Chapelle</name>
    <desc><![CDATA[La Chapelle, Parnes, Le Breuil, Buhy, La Chapelle]]></desc>
  </metadata>
  <trk>
    <name><![CDATA[La chapelle Parnes Breuil Buhy La Chapelle_1]]></name>
    <trkseg>
      <trkpt lat="49.18499" lon="1.73035">
        <ele>129.3</ele>
        <time>2010-01-01T00:00:00Z</time>
      </trkpt>
      <trkpt lat="49.18498" lon="1.73037">
        <ele>129.5</ele>
        <time>2010-01-01T00:00:00Z</time>
      </trkpt>
      <trkpt lat="49.1849" lon="1.73031">
        <ele>129.8</ele>
        <time>2010-01-01T00:00:00Z</time>
      </trkpt>
      <trkpt lat="49.18445" lon="1.73139">
        <ele>136</ele>
        <time>2010-01-01T00:00:00Z</time>
      </trkpt>
      <trkpt lat="49.18438" lon="1.73157">
        <ele>136.6</ele>
        <time>2010-01-01T00:00:00Z</time>
      </trkpt>
      <trkpt lat="49.1842" lon="1.73199">
        <ele>139.8</ele>
        <time>2010-01-01T00:00:00Z</time>
      </trkpt>
      <trkpt lat="49.18414" lon="1.73214">
        <ele>140.2</ele>
        <time>2010-01-01T00:00:00Z</time>
      </trkpt>
      <trkpt lat="49.18428" lon="1.7322">
        <ele>139.6</ele>
        <time>2010-01-01T00:00:00Z</time>
      </trkpt>
      <trkpt lat="49.18443" lon="1.73239">
        <ele>139.7</ele>
        <time>2010-01-01T00:00:00Z</time>
      </trkpt>
      <trkpt lat="49.1845" lon="1.73246">
        <ele>139.4</ele>
        <time>2010-01-01T00:00:00Z</time>
      </trkpt>
      <trkpt lat="49.18477" lon="1.73268">
        <ele>138</ele>
        <time>2010-01-01T00:00:00Z</time>
      </trkpt>
      <trkpt lat="49.18482" lon="1.73282">
        <ele>138.2</ele>
        <time>2010-01-01T00:00:00Z</time>
      </trkpt>
      <trkpt lat="49.18485" lon="1.73287">
        <ele>138.3</ele>
        <time>2010-01-01T00:00:00Z</time>
      </trkpt>
      <trkpt lat="49.18502" lon="1.7331">
        <ele>138.8</ele>
        <time>2010-01-01T00:00:00Z</time>
      </trkpt>
      <trkpt lat="49.18521" lon="1.73332">
        <ele>138.2</ele>
        <time>2010-01-01T00:00:00Z</time>
      </trkpt>
      <trkpt lat="49.1853" lon="1.7334">
        <ele>138.3</ele>
        <time>2010-01-01T00:00:00Z</time>
      </trkpt>
      <trkpt lat="49.18567" lon="1.73372">
        <ele>138.7</ele>
        <time>2010-01-01T00:00:00Z</time>
      </trkpt>
      <trkpt lat="49.1859" lon="1.73398">
        <ele>139.3</ele>
        <time>2010-01-01T00:00:00Z</time>
      </trkpt>
      <trkpt lat="49.18593" lon="1.73401">
        <ele>139.3</ele>
        <time>2010-01-01T00:00:00Z</time>
      </trkpt>
      <trkpt lat="49.18616" lon="1.73438">
        <ele>140.6</ele>
        <time>2010-01-01T00:00:00Z</time>
      </trkpt>
      <trkpt lat="49.18648" lon="1.73497">
        <ele>143.5</ele>
        <time>2010-01-01T00:00:00Z</time>
      </trkpt>
      <trkpt lat="49.18649" lon="1.735">
        <ele>143.6</ele>
        <time>2010-01-01T00:00:00Z</time>
      </trkpt>
      <trkpt lat="49.1865" lon="1.73511">
        <ele>144</ele>
        <time>2010-01-01T00:00:00Z</time>
      </trkpt>
      <trkpt lat="49.18658" lon="1.73537">
        <ele>144.5</ele>
        <time>2010-01-01T00:00:00Z</time>
      </trkpt>
      <trkpt lat="49.18662" lon="1.7356">
        <ele>145</ele>
        <time>2010-01-01T00:00:00Z</time>
      </trkpt>
      <trkpt lat="49.1867" lon="1.73592">
        <ele>145.3</ele>
        <time>2010-01-01T00:00:00Z</time>
      </trkpt>
      <trkpt lat="49.18673" lon="1.73608">
        <ele>145.9</ele>
        <time>2010-01-01T00:00:00Z</time>
      </trkpt>
      <trkpt lat="49.18673" lon="1.73608">
        <ele>145.9</ele>
        <time>2010-01-01T00:00:00Z</time>
      </trkpt>
      <trkpt lat="49.18675" lon="1.73621">
        <ele>146</ele>
        <time>2010-01-01T00:00:00Z</time>
      </trkpt>
      <trkpt lat="49.18685" lon="1.73663">
        <ele>146</ele>
        <time>2010-01-01T00:00:00Z</time>
      </trkpt>
      <trkpt lat="49.18688" lon="1.73674">
        <ele>146.1</ele>
        <time>2010-01-01T00:00:00Z</time>
      </trkpt>
      <trkpt lat="49.18712" lon="1.73769">
        <ele>146.8</ele>
        <time>2010-01-01T00:00:00Z</time>
      </trkpt>
      <trkpt lat="49.18728" lon="1.73814">
        <ele>146.9</ele>
        <time>2010-01-01T00:00:00Z</time>
      </trkpt>
      <trkpt lat="49.1873" lon="1.73819">
        <ele>146.9</ele>
        <time>2010-01-01T00:00:00Z</time>
      </trkpt>
      <trkpt lat="49.18743" lon="1.73847">
        <ele>147</ele>
        <time>2010-01-01T00:00:00Z</time>
      </trkpt>
      <trkpt lat="49.18746" lon="1.73852">
        <ele>147</ele>
        <time>2010-01-01T00:00:00Z</time>
      </trkpt>
      <trkpt lat="49.18761" lon="1.73876">
        <ele>146.8</ele>
        <time>2010-01-01T00:00:00Z</time>
      </trkpt>
      <trkpt lat="49.18815" lon="1.73957">
        <ele>146.8</ele>
        <time>2010-01-01T00:00:00Z</time>
      </trkpt>
      <trkpt lat="49.18869" lon="1.74037">
        <ele>146.5</ele>
        <time>2010-01-01T00:00:00Z</time>
      </trkpt>
      <trkpt lat="49.18916" lon="1.74108">
        <ele>145</ele>
        <time>2010-01-01T00:00:00Z</time>
      </trkpt>
      <trkpt lat="49.19033" lon="1.74278">
        <ele>144</ele>
        <time>2010-01-01T00:00:00Z</time>
      </trkpt>
      <trkpt lat="49.19063" lon="1.74322">
        <ele>144</ele>
        <time>2010-01-01T00:00:00Z</time>
      </trkpt>
      <trkpt lat="49.19088" lon="1.74367">
        <ele>143.7</ele>
        <time>2010-01-01T00:00:00Z</time>
      </trkpt>
      <trkpt lat="49.19094" lon="1.74378">
        <ele>143.2</ele>
        <time>2010-01-01T00:00:00Z</time>
      </trkpt>
      <trkpt lat="49.19118" lon="1.74428">
        <ele>142.7</ele>
        <time>2010-01-01T00:00:00Z</time>
      </trkpt>
      <trkpt lat="49.19152" lon="1.7449">
        <ele>141.7</ele>
        <time>2010-01-01T00:00:00Z</time>
      </trkpt>
      <trkpt lat="49.19189" lon="1.74536">
        <ele>139.9</ele>
        <time>2010-01-01T00:00:00Z</time>
      </trkpt>
      <trkpt lat="49.19191" lon="1.7454">
        <ele>139.7</ele>
        <time>2010-01-01T00:00:00Z</time>
      </trkpt>
      <trkpt lat="49.19242" lon="1.74607">
        <ele>137.3</ele>
        <time>2010-01-01T00:00:00Z</time>
      </trkpt>
      <trkpt lat="49.19289" lon="1.74669">
        <ele>135.9</ele>
        <time>2010-01-01T00:00:00Z</time>
      </trkpt>
      <trkpt lat="49.19363" lon="1.74769">
        <ele>132.3</ele>
        <time>2010-01-01T00:00:00Z</time>
      </trkpt>
      <trkpt lat="49.19394" lon="1.74806">
        <ele>131.8</ele>
        <time>2010-01-01T00:00:00Z</time>
      </trkpt>
      <trkpt lat="49.19394" lon="1.74795">
        <ele>131.9</ele>
        <time>2010-01-01T00:00:00Z</time>
      </trkpt>
      <trkpt lat="49.19394" lon="1.74795">
        <ele>131.9</ele>
        <time>2010-01-01T00:00:00Z</time>
      </trkpt>
      <trkpt lat="49.19395" lon="1.74788">
        <ele>131.9</ele>
        <time>2010-01-01T00:00:00Z</time>
      </trkpt>
      <trkpt lat="49.19401" lon="1.74726">
        <ele>133.9</ele>
        <time>2010-01-01T00:00:00Z</time>
      </trkpt>
      <trkpt lat="49.19407" lon="1.74639">
        <ele>136</ele>
        <time>2010-01-01T00:00:00Z</time>
      </trkpt>
      <trkpt lat="49.19414" lon="1.74572">
        <ele>136.5</ele>
        <time>2010-01-01T00:00:00Z</time>
      </trkpt>
      <trkpt lat="49.19437" lon="1.74287">
        <ele>137.3</ele>
        <time>2010-01-01T00:00:00Z</time>
      </trkpt>
      <trkpt lat="49.19449" lon="1.74124">
        <ele>136.8</ele>
        <time>2010-01-01T00:00:00Z</time>
      </trkpt>
      <trkpt lat="49.19456" lon="1.74002">
        <ele>137.6</ele>
        <time>2010-01-01T00:00:00Z</time>
      </trkpt>
      <trkpt lat="49.1946" lon="1.73949">
        <ele>137.4</ele>
        <time>2010-01-01T00:00:00Z</time>
      </trkpt>
      <trkpt lat="49.19462" lon="1.73913">
        <ele>137.9</ele>
        <time>2010-01-01T00:00:00Z</time>
      </trkpt>
      <trkpt lat="49.19474" lon="1.73738">
        <ele>135.1</ele>
        <time>2010-01-01T00:00:00Z</time>
      </trkpt>
      <trkpt lat="49.19474" lon="1.73738">
        <ele>135.1</ele>
        <time>2010-01-01T00:00:00Z</time>
      </trkpt>
      <trkpt lat="49.19474" lon="1.73727">
        <ele>135.1</ele>
        <time>2010-01-01T00:00:00Z</time>
      </trkpt>
      <trkpt lat="49.1948" lon="1.73727">
        <ele>135.3</ele>
        <time>2010-01-01T00:00:00Z</time>
      </trkpt>
      <trkpt lat="49.19505" lon="1.73729">
        <ele>135.8</ele>
        <time>2010-01-01T00:00:00Z</time>
      </trkpt>
      <trkpt lat="49.19534" lon="1.73736">
        <ele>135</ele>
        <time>2010-01-01T00:00:00Z</time>
      </trkpt>
      <trkpt lat="49.19577" lon="1.73756">
        <ele>134</ele>
        <time>2010-01-01T00:00:00Z</time>
      </trkpt>
      <trkpt lat="49.19609" lon="1.73774">
        <ele>131.3</ele>
        <time>2010-01-01T00:00:00Z</time>
      </trkpt>
      <trkpt lat="49.19628" lon="1.73787">
        <ele>129.8</ele>
        <time>2010-01-01T00:00:00Z</time>
      </trkpt>
      <trkpt lat="49.19643" lon="1.73796">
        <ele>128.7</ele>
        <time>2010-01-01T00:00:00Z</time>
      </trkpt>
      <trkpt lat="49.19653" lon="1.73805">
        <ele>128</ele>
        <time>2010-01-01T00:00:00Z</time>
      </trkpt>
      <trkpt lat="49.19695" lon="1.7383">
        <ele>125</ele>
        <time>2010-01-01T00:00:00Z</time>
      </trkpt>
      <trkpt lat="49.19746" lon="1.73852">
        <ele>122.2</ele>
        <time>2010-01-01T00:00:00Z</time>
      </trkpt>
      <trkpt lat="49.19754" lon="1.73855">
        <ele>121.7</ele>
        <time>2010-01-01T00:00:00Z</time>
      </trkpt>
      <trkpt lat="49.19825" lon="1.73881">
        <ele>115.8</ele>
        <time>2010-01-01T00:00:00Z</time>
      </trkpt>
      <trkpt lat="49.19849" lon="1.73893">
        <ele>113.5</ele>
        <time>2010-01-01T00:00:00Z</time>
      </trkpt>
      <trkpt lat="49.19883" lon="1.73901">
        <ele>110.4</ele>
        <time>2010-01-01T00:00:00Z</time>
      </trkpt>
      <trkpt lat="49.19911" lon="1.7391">
        <ele>107.5</ele>
        <time>2010-01-01T00:00:00Z</time>
      </trkpt>
      <trkpt lat="49.19926" lon="1.73913">
        <ele>105.6</ele>
        <time>2010-01-01T00:00:00Z</time>
      </trkpt>
      <trkpt lat="49.19945" lon="1.73921">
        <ele>103.2</ele>
        <time>2010-01-01T00:00:00Z</time>
      </trkpt>
      <trkpt lat="49.19953" lon="1.73927">
        <ele>102.7</ele>
        <time>2010-01-01T00:00:00Z</time>
      </trkpt>
      <trkpt lat="49.19957" lon="1.7393">
        <ele>102.4</ele>
        <time>2010-01-01T00:00:00Z</time>
      </trkpt>
      <trkpt lat="49.19965" lon="1.73934">
        <ele>101.6</ele>
        <time>2010-01-01T00:00:00Z</time>
      </trkpt>
      <trkpt lat="49.19976" lon="1.7394">
        <ele>100.4</ele>
        <time>2010-01-01T00:00:00Z</time>
      </trkpt>
      <trkpt lat="49.19983" lon="1.73943">
        <ele>99.8</ele>
        <time>2010-01-01T00:00:00Z</time>
      </trkpt>
      <trkpt lat="49.19995" lon="1.73948">
        <ele>98.5</ele>
        <time>2010-01-01T00:00:00Z</time>
      </trkpt>
      <trkpt lat="49.20039" lon="1.73959">
        <ele>92.8</ele>
        <time>2010-01-01T00:00:00Z</time>
      </trkpt>
      <trkpt lat="49.20064" lon="1.7396">
        <ele>90.1</ele>
        <time>2010-01-01T00:00:00Z</time>
      </trkpt>
      <trkpt lat="49.2009" lon="1.7396">
        <ele>87.5</ele>
        <time>2010-01-01T00:00:00Z</time>
      </trkpt>
      <trkpt lat="49.2012" lon="1.73961">
        <ele>85.7</ele>
        <time>2010-01-01T00:00:00Z</time>
      </trkpt>
      <trkpt lat="49.20132" lon="1.73963">
        <ele>85.2</ele>
        <time>2010-01-01T00:00:00Z</time>
      </trkpt>
      <trkpt lat="49.20149" lon="1.73966">
        <ele>84.6</ele>
        <time>2010-01-01T00:00:00Z</time>
      </trkpt>
      <trkpt lat="49.20167" lon="1.73969">
        <ele>84</ele>
        <time>2010-01-01T00:00:00Z</time>
      </trkpt>
      <trkpt lat="49.20191" lon="1.73969">
        <ele>83.1</ele>
        <time>2010-01-01T00:00:00Z</time>
      </trkpt>
      <trkpt lat="49.20201" lon="1.73958">
        <ele>82.8</ele>
        <time>2010-01-01T00:00:00Z</time>
      </trkpt>
      <trkpt lat="49.20215" lon="1.73942">
        <ele>82.3</ele>
        <time>2010-01-01T00:00:00Z</time>
      </trkpt>
      <trkpt lat="49.20217" lon="1.7394">
        <ele>82.2</ele>
        <time>2010-01-01T00:00:00Z</time>
      </trkpt>
      <trkpt lat="49.20222" lon="1.73934">
        <ele>82</ele>
        <time>2010-01-01T00:00:00Z</time>
      </trkpt>
      <trkpt lat="49.20234" lon="1.7392">
        <ele>82</ele>
        <time>2010-01-01T00:00:00Z</time>
      </trkpt>
      <trkpt lat="49.20268" lon="1.73879">
        <ele>80.4</ele>
        <time>2010-01-01T00:00:00Z</time>
      </trkpt>
      <trkpt lat="49.20286" lon="1.73863">
        <ele>80</ele>
        <time>2010-01-01T00:00:00Z</time>
      </trkpt>
      <trkpt lat="49.20319" lon="1.73819">
        <ele>78.3</ele>
        <time>2010-01-01T00:00:00Z</time>
      </trkpt>
      <trkpt lat="49.20349" lon="1.73796">
        <ele>76.3</ele>
        <time>2010-01-01T00:00:00Z</time>
      </trkpt>
      <trkpt lat="49.20355" lon="1.73792">
        <ele>76.1</ele>
        <time>2010-01-01T00:00:00Z</time>
      </trkpt>
      <trkpt lat="49.20372" lon="1.73782">
        <ele>75.6</ele>
        <time>2010-01-01T00:00:00Z</time>
      </trkpt>
      <trkpt lat="49.20369" lon="1.73768">
        <ele>75.5</ele>
        <time>2010-01-01T00:00:00Z</time>
      </trkpt>
      <trkpt lat="49.20367" lon="1.7376">
        <ele>75.3</ele>
        <time>2010-01-01T00:00:00Z</time>
      </trkpt>
      <trkpt lat="49.20367" lon="1.7376">
        <ele>75.3</ele>
        <time>2010-01-01T00:00:00Z</time>
      </trkpt>
      <trkpt lat="49.20369" lon="1.73768">
        <ele>75.5</ele>
        <time>2010-01-01T00:00:00Z</time>
      </trkpt>
      <trkpt lat="49.20372" lon="1.73782">
        <ele>75.6</ele>
        <time>2010-01-01T00:00:00Z</time>
      </trkpt>
      <trkpt lat="49.20386" lon="1.73817">
        <ele>75.1</ele>
        <time>2010-01-01T00:00:00Z</time>
      </trkpt>
      <trkpt lat="49.20393" lon="1.73835">
        <ele>75</ele>
        <time>2010-01-01T00:00:00Z</time>
      </trkpt>
      <trkpt lat="49.20402" lon="1.73865">
        <ele>75</ele>
        <time>2010-01-01T00:00:00Z</time>
      </trkpt>
      <trkpt lat="49.20405" lon="1.73871">
        <ele>75</ele>
        <time>2010-01-01T00:00:00Z</time>
      </trkpt>
      <trkpt lat="49.20408" lon="1.73878">
        <ele>75</ele>
        <time>2010-01-01T00:00:00Z</time>
      </trkpt>
      <trkpt lat="49.2041" lon="1.73883">
        <ele>75</ele>
        <time>2010-01-01T00:00:00Z</time>
      </trkpt>
      <trkpt lat="49.20421" lon="1.73908">
        <ele>75</ele>
        <time>2010-01-01T00:00:00Z</time>
      </trkpt>
      <trkpt lat="49.20439" lon="1.73933">
        <ele>75</ele>
        <time>2010-01-01T00:00:00Z</time>
      </trkpt>
      <trkpt lat="49.20442" lon="1.73938">
        <ele>75</ele>
        <time>2010-01-01T00:00:00Z</time>
      </trkpt>
      <trkpt lat="49.20496" lon="1.74015">
        <ele>75.9</ele>
        <time>2010-01-01T00:00:00Z</time>
      </trkpt>
      <trkpt lat="49.20582" lon="1.74139">
        <ele>79.8</ele>
        <time>2010-01-01T00:00:00Z</time>
      </trkpt>
      <trkpt lat="49.20714" lon="1.7433">
        <ele>91.9</ele>
        <time>2010-01-01T00:00:00Z</time>
      </trkpt>
      <trkpt lat="49.20714" lon="1.7433">
        <ele>91.9</ele>
        <time>2010-01-01T00:00:00Z</time>
      </trkpt>
      <trkpt lat="49.20741" lon="1.74368">
        <ele>94.9</ele>
        <time>2010-01-01T00:00:00Z</time>
      </trkpt>
      <trkpt lat="49.2074" lon="1.74333">
        <ele>95.6</ele>
        <time>2010-01-01T00:00:00Z</time>
      </trkpt>
      <trkpt lat="49.20737" lon="1.74228">
        <ele>97.5</ele>
        <time>2010-01-01T00:00:00Z</time>
      </trkpt>
      <trkpt lat="49.20737" lon="1.74217">
        <ele>97.8</ele>
        <time>2010-01-01T00:00:00Z</time>
      </trkpt>
      <trkpt lat="49.20734" lon="1.74172">
        <ele>98.5</ele>
        <time>2010-01-01T00:00:00Z</time>
      </trkpt>
      <trkpt lat="49.20728" lon="1.74132">
        <ele>97.5</ele>
        <time>2010-01-01T00:00:00Z</time>
      </trkpt>
      <trkpt lat="49.20741" lon="1.74122">
        <ele>100.7</ele>
        <time>2010-01-01T00:00:00Z</time>
      </trkpt>
      <trkpt lat="49.20747" lon="1.74111">
        <ele>102.4</ele>
        <time>2010-01-01T00:00:00Z</time>
      </trkpt>
      <trkpt lat="49.20747" lon="1.74097">
        <ele>103.4</ele>
        <time>2010-01-01T00:00:00Z</time>
      </trkpt>
      <trkpt lat="49.20748" lon="1.7409">
        <ele>104.1</ele>
        <time>2010-01-01T00:00:00Z</time>
      </trkpt>
      <trkpt lat="49.2075" lon="1.7408">
        <ele>105.1</ele>
        <time>2010-01-01T00:00:00Z</time>
      </trkpt>
      <trkpt lat="49.20752" lon="1.74076">
        <ele>105.6</ele>
        <time>2010-01-01T00:00:00Z</time>
      </trkpt>
      <trkpt lat="49.20759" lon="1.74066">
        <ele>106.9</ele>
        <time>2010-01-01T00:00:00Z</time>
      </trkpt>
      <trkpt lat="49.20761" lon="1.74064">
        <ele>107.3</ele>
        <time>2010-01-01T00:00:00Z</time>
      </trkpt>
      <trkpt lat="49.20767" lon="1.74057">
        <ele>108.4</ele>
        <time>2010-01-01T00:00:00Z</time>
      </trkpt>
      <trkpt lat="49.2078" lon="1.74044">
        <ele>110.8</ele>
        <time>2010-01-01T00:00:00Z</time>
      </trkpt>
      <trkpt lat="49.20784" lon="1.74034">
        <ele>111.9</ele>
        <time>2010-01-01T00:00:00Z</time>
      </trkpt>
      <trkpt lat="49.20784" lon="1.74026">
        <ele>112.2</ele>
        <time>2010-01-01T00:00:00Z</time>
      </trkpt>
      <trkpt lat="49.20785" lon="1.74009">
        <ele>113</ele>
        <time>2010-01-01T00:00:00Z</time>
      </trkpt>
      <trkpt lat="49.20784" lon="1.73933">
        <ele>115.8</ele>
        <time>2010-01-01T00:00:00Z</time>
      </trkpt>
      <trkpt lat="49.20781" lon="1.73832">
        <ele>118.3</ele>
        <time>2010-01-01T00:00:00Z</time>
      </trkpt>
      <trkpt lat="49.20779" lon="1.7377">
        <ele>118.1</ele>
        <time>2010-01-01T00:00:00Z</time>
      </trkpt>
      <trkpt lat="49.2078" lon="1.73713">
        <ele>119.6</ele>
        <time>2010-01-01T00:00:00Z</time>
      </trkpt>
      <trkpt lat="49.20774" lon="1.73658">
        <ele>120.8</ele>
        <time>2010-01-01T00:00:00Z</time>
      </trkpt>
      <trkpt lat="49.2077" lon="1.73626">
        <ele>121.3</ele>
        <time>2010-01-01T00:00:00Z</time>
      </trkpt>
      <trkpt lat="49.20765" lon="1.73541">
        <ele>122.4</ele>
        <time>2010-01-01T00:00:00Z</time>
      </trkpt>
      <trkpt lat="49.20761" lon="1.73524">
        <ele>122.3</ele>
        <time>2010-01-01T00:00:00Z</time>
      </trkpt>
      <trkpt lat="49.20755" lon="1.73506">
        <ele>122.2</ele>
        <time>2010-01-01T00:00:00Z</time>
      </trkpt>
      <trkpt lat="49.20748" lon="1.73486">
        <ele>122.3</ele>
        <time>2010-01-01T00:00:00Z</time>
      </trkpt>
      <trkpt lat="49.20744" lon="1.73467">
        <ele>122.3</ele>
        <time>2010-01-01T00:00:00Z</time>
      </trkpt>
      <trkpt lat="49.20738" lon="1.73417">
        <ele>123.3</ele>
        <time>2010-01-01T00:00:00Z</time>
      </trkpt>
      <trkpt lat="49.20732" lon="1.73363">
        <ele>123.4</ele>
        <time>2010-01-01T00:00:00Z</time>
      </trkpt>
      <trkpt lat="49.20732" lon="1.73345">
        <ele>124</ele>
        <time>2010-01-01T00:00:00Z</time>
      </trkpt>
      <trkpt lat="49.20731" lon="1.73341">
        <ele>124</ele>
        <time>2010-01-01T00:00:00Z</time>
      </trkpt>
      <trkpt lat="49.20734" lon="1.73314">
        <ele>124.7</ele>
        <time>2010-01-01T00:00:00Z</time>
      </trkpt>
      <trkpt lat="49.20739" lon="1.73294">
        <ele>125.8</ele>
        <time>2010-01-01T00:00:00Z</time>
      </trkpt>
      <trkpt lat="49.20749" lon="1.73268">
        <ele>127.9</ele>
        <time>2010-01-01T00:00:00Z</time>
      </trkpt>
      <trkpt lat="49.2079" lon="1.73152">
        <ele>131.3</ele>
        <time>2010-01-01T00:00:00Z</time>
      </trkpt>
      <trkpt lat="49.208" lon="1.73134">
        <ele>132.4</ele>
        <time>2010-01-01T00:00:00Z</time>
      </trkpt>
      <trkpt lat="49.20861" lon="1.73098">
        <ele>136</ele>
        <time>2010-01-01T00:00:00Z</time>
      </trkpt>
      <trkpt lat="49.20867" lon="1.73098">
        <ele>136.2</ele>
        <time>2010-01-01T00:00:00Z</time>
      </trkpt>
      <trkpt lat="49.2096" lon="1.73046">
        <ele>139.2</ele>
        <time>2010-01-01T00:00:00Z</time>
      </trkpt>
      <trkpt lat="49.21023" lon="1.7301">
        <ele>140.8</ele>
        <time>2010-01-01T00:00:00Z</time>
      </trkpt>
      <trkpt lat="49.21078" lon="1.72979">
        <ele>142</ele>
        <time>2010-01-01T00:00:00Z</time>
      </trkpt>
      <trkpt lat="49.21251" lon="1.72881">
        <ele>142</ele>
        <time>2010-01-01T00:00:00Z</time>
      </trkpt>
      <trkpt lat="49.21351" lon="1.72825">
        <ele>139.4</ele>
        <time>2010-01-01T00:00:00Z</time>
      </trkpt>
      <trkpt lat="49.21499" lon="1.7274">
        <ele>134</ele>
        <time>2010-01-01T00:00:00Z</time>
      </trkpt>
      <trkpt lat="49.21502" lon="1.72739">
        <ele>134</ele>
        <time>2010-01-01T00:00:00Z</time>
      </trkpt>
      <trkpt lat="49.21524" lon="1.72718">
        <ele>133</ele>
        <time>2010-01-01T00:00:00Z</time>
      </trkpt>
      <trkpt lat="49.21526" lon="1.72714">
        <ele>132.8</ele>
        <time>2010-01-01T00:00:00Z</time>
      </trkpt>
      <trkpt lat="49.2153" lon="1.72708">
        <ele>132.4</ele>
        <time>2010-01-01T00:00:00Z</time>
      </trkpt>
      <trkpt lat="49.21551" lon="1.72672">
        <ele>130.4</ele>
        <time>2010-01-01T00:00:00Z</time>
      </trkpt>
      <trkpt lat="49.21562" lon="1.72645">
        <ele>128.2</ele>
        <time>2010-01-01T00:00:00Z</time>
      </trkpt>
      <trkpt lat="49.21563" lon="1.72642">
        <ele>128</ele>
        <time>2010-01-01T00:00:00Z</time>
      </trkpt>
      <trkpt lat="49.21568" lon="1.72627">
        <ele>126.7</ele>
        <time>2010-01-01T00:00:00Z</time>
      </trkpt>
      <trkpt lat="49.21571" lon="1.7262">
        <ele>126.1</ele>
        <time>2010-01-01T00:00:00Z</time>
      </trkpt>
      <trkpt lat="49.21578" lon="1.72588">
        <ele>122.7</ele>
        <time>2010-01-01T00:00:00Z</time>
      </trkpt>
      <trkpt lat="49.2158" lon="1.72572">
        <ele>120.5</ele>
        <time>2010-01-01T00:00:00Z</time>
      </trkpt>
      <trkpt lat="49.21579" lon="1.72557">
        <ele>118.4</ele>
        <time>2010-01-01T00:00:00Z</time>
      </trkpt>
      <trkpt lat="49.2158" lon="1.72544">
        <ele>116.5</ele>
        <time>2010-01-01T00:00:00Z</time>
      </trkpt>
      <trkpt lat="49.2158" lon="1.72531">
        <ele>114.6</ele>
        <time>2010-01-01T00:00:00Z</time>
      </trkpt>
      <trkpt lat="49.2158" lon="1.72526">
        <ele>113.9</ele>
        <time>2010-01-01T00:00:00Z</time>
      </trkpt>
      <trkpt lat="49.2158" lon="1.72526">
        <ele>113.9</ele>
        <time>2010-01-01T00:00:00Z</time>
      </trkpt>
      <trkpt lat="49.21581" lon="1.72509">
        <ele>112.1</ele>
        <time>2010-01-01T00:00:00Z</time>
      </trkpt>
      <trkpt lat="49.21582" lon="1.72506">
        <ele>111.7</ele>
        <time>2010-01-01T00:00:00Z</time>
      </trkpt>
      <trkpt lat="49.21586" lon="1.72485">
        <ele>110</ele>
        <time>2010-01-01T00:00:00Z</time>
      </trkpt>
      <trkpt lat="49.21592" lon="1.7246">
        <ele>107.8</ele>
        <time>2010-01-01T00:00:00Z</time>
      </trkpt>
      <trkpt lat="49.21598" lon="1.72442">
        <ele>106.3</ele>
        <time>2010-01-01T00:00:00Z</time>
      </trkpt>
      <trkpt lat="49.21601" lon="1.72432">
        <ele>105.5</ele>
        <time>2010-01-01T00:00:00Z</time>
      </trkpt>
      <trkpt lat="49.21605" lon="1.72418">
        <ele>104.1</ele>
        <time>2010-01-01T00:00:00Z</time>
      </trkpt>
      <trkpt lat="49.21617" lon="1.7239">
        <ele>101.1</ele>
        <time>2010-01-01T00:00:00Z</time>
      </trkpt>
      <trkpt lat="49.21626" lon="1.72388">
        <ele>100.9</ele>
        <time>2010-01-01T00:00:00Z</time>
      </trkpt>
      <trkpt lat="49.21634" lon="1.72385">
        <ele>100.6</ele>
        <time>2010-01-01T00:00:00Z</time>
      </trkpt>
      <trkpt lat="49.2164" lon="1.72383">
        <ele>100.3</ele>
        <time>2010-01-01T00:00:00Z</time>
      </trkpt>
      <trkpt lat="49.2164" lon="1.72383">
        <ele>100.3</ele>
        <time>2010-01-01T00:00:00Z</time>
      </trkpt>
      <trkpt lat="49.2164" lon="1.72383">
        <ele>100.3</ele>
        <time>2010-01-01T00:00:00Z</time>
      </trkpt>
      <trkpt lat="49.21645" lon="1.72382">
        <ele>99.9</ele>
        <time>2010-01-01T00:00:00Z</time>
      </trkpt>
      <trkpt lat="49.2167" lon="1.72375">
        <ele>98.4</ele>
        <time>2010-01-01T00:00:00Z</time>
      </trkpt>
      <trkpt lat="49.21676" lon="1.72366">
        <ele>97.8</ele>
        <time>2010-01-01T00:00:00Z</time>
      </trkpt>
      <trkpt lat="49.21687" lon="1.72377">
        <ele>97.8</ele>
        <time>2010-01-01T00:00:00Z</time>
      </trkpt>
      <trkpt lat="49.21714" lon="1.72394">
        <ele>96.8</ele>
        <time>2010-01-01T00:00:00Z</time>
      </trkpt>
      <trkpt lat="49.21734" lon="1.72404">
        <ele>95.9</ele>
        <time>2010-01-01T00:00:00Z</time>
      </trkpt>
      <trkpt lat="49.21764" lon="1.72411">
        <ele>94.4</ele>
        <time>2010-01-01T00:00:00Z</time>
      </trkpt>
      <trkpt lat="49.21778" lon="1.72411">
        <ele>93.8</ele>
        <time>2010-01-01T00:00:00Z</time>
      </trkpt>
      <trkpt lat="49.21804" lon="1.72404">
        <ele>93.5</ele>
        <time>2010-01-01T00:00:00Z</time>
      </trkpt>
      <trkpt lat="49.21818" lon="1.72398">
        <ele>93.3</ele>
        <time>2010-01-01T00:00:00Z</time>
      </trkpt>
      <trkpt lat="49.21823" lon="1.72389">
        <ele>93</ele>
        <time>2010-01-01T00:00:00Z</time>
      </trkpt>
      <trkpt lat="49.21825" lon="1.72385">
        <ele>92.9</ele>
        <time>2010-01-01T00:00:00Z</time>
      </trkpt>
      <trkpt lat="49.21832" lon="1.72366">
        <ele>92.2</ele>
        <time>2010-01-01T00:00:00Z</time>
      </trkpt>
      <trkpt lat="49.21848" lon="1.72311">
        <ele>89.3</ele>
        <time>2010-01-01T00:00:00Z</time>
      </trkpt>
      <trkpt lat="49.21859" lon="1.72271">
        <ele>87.1</ele>
        <time>2010-01-01T00:00:00Z</time>
      </trkpt>
      <trkpt lat="49.21866" lon="1.72227">
        <ele>86.2</ele>
        <time>2010-01-01T00:00:00Z</time>
      </trkpt>
      <trkpt lat="49.2187" lon="1.72211">
        <ele>85.9</ele>
        <time>2010-01-01T00:00:00Z</time>
      </trkpt>
      <trkpt lat="49.21878" lon="1.722">
        <ele>85.5</ele>
        <time>2010-01-01T00:00:00Z</time>
      </trkpt>
      <trkpt lat="49.21907" lon="1.72185">
        <ele>85</ele>
        <time>2010-01-01T00:00:00Z</time>
      </trkpt>
      <trkpt lat="49.21915" lon="1.72178">
        <ele>85</ele>
        <time>2010-01-01T00:00:00Z</time>
      </trkpt>
      <trkpt lat="49.21922" lon="1.72169">
        <ele>84.8</ele>
        <time>2010-01-01T00:00:00Z</time>
      </trkpt>
      <trkpt lat="49.21931" lon="1.72147">
        <ele>84.5</ele>
        <time>2010-01-01T00:00:00Z</time>
      </trkpt>
      <trkpt lat="49.21931" lon="1.72147">
        <ele>84.5</ele>
        <time>2010-01-01T00:00:00Z</time>
      </trkpt>
      <trkpt lat="49.21938" lon="1.7213">
        <ele>83.9</ele>
        <time>2010-01-01T00:00:00Z</time>
      </trkpt>
      <trkpt lat="49.22029" lon="1.71871">
        <ele>81.9</ele>
        <time>2010-01-01T00:00:00Z</time>
      </trkpt>
      <trkpt lat="49.22046" lon="1.71825">
        <ele>81.3</ele>
        <time>2010-01-01T00:00:00Z</time>
      </trkpt>
      <trkpt lat="49.22059" lon="1.71798">
        <ele>80.9</ele>
        <time>2010-01-01T00:00:00Z</time>
      </trkpt>
      <trkpt lat="49.22072" lon="1.71779">
        <ele>81</ele>
        <time>2010-01-01T00:00:00Z</time>
      </trkpt>
      <trkpt lat="49.22149" lon="1.71683">
        <ele>80.4</ele>
        <time>2010-01-01T00:00:00Z</time>
      </trkpt>
      <trkpt lat="49.22164" lon="1.71666">
        <ele>80.1</ele>
        <time>2010-01-01T00:00:00Z</time>
      </trkpt>
      <trkpt lat="49.22164" lon="1.71666">
        <ele>80.1</ele>
        <time>2010-01-01T00:00:00Z</time>
      </trkpt>
      <trkpt lat="49.22168" lon="1.71662">
        <ele>79.9</ele>
        <time>2010-01-01T00:00:00Z</time>
      </trkpt>
      <trkpt lat="49.22172" lon="1.7166">
        <ele>79.7</ele>
        <time>2010-01-01T00:00:00Z</time>
      </trkpt>
      <trkpt lat="49.22164" lon="1.71653">
        <ele>80.1</ele>
        <time>2010-01-01T00:00:00Z</time>
      </trkpt>
      <trkpt lat="49.22129" lon="1.71625">
        <ele>81.4</ele>
        <time>2010-01-01T00:00:00Z</time>
      </trkpt>
      <trkpt lat="49.22043" lon="1.71562">
        <ele>85</ele>
        <time>2010-01-01T00:00:00Z</time>
      </trkpt>
      <trkpt lat="49.21971" lon="1.71515">
        <ele>87</ele>
        <time>2010-01-01T00:00:00Z</time>
      </trkpt>
      <trkpt lat="49.21932" lon="1.71491">
        <ele>88.4</ele>
        <time>2010-01-01T00:00:00Z</time>
      </trkpt>
      <trkpt lat="49.21885" lon="1.71468">
        <ele>90.1</ele>
        <time>2010-01-01T00:00:00Z</time>
      </trkpt>
      <trkpt lat="49.21845" lon="1.71445">
        <ele>91.6</ele>
        <time>2010-01-01T00:00:00Z</time>
      </trkpt>
      <trkpt lat="49.21807" lon="1.71425">
        <ele>92.9</ele>
        <time>2010-01-01T00:00:00Z</time>
      </trkpt>
      <trkpt lat="49.21789" lon="1.71415">
        <ele>93</ele>
        <time>2010-01-01T00:00:00Z</time>
      </trkpt>
      <trkpt lat="49.21789" lon="1.71415">
        <ele>93</ele>
        <time>2010-01-01T00:00:00Z</time>
      </trkpt>
      <trkpt lat="49.21767" lon="1.71403">
        <ele>93.2</ele>
        <time>2010-01-01T00:00:00Z</time>
      </trkpt>
      <trkpt lat="49.21745" lon="1.71388">
        <ele>94</ele>
        <time>2010-01-01T00:00:00Z</time>
      </trkpt>
      <trkpt lat="49.21714" lon="1.71358">
        <ele>94.1</ele>
        <time>2010-01-01T00:00:00Z</time>
      </trkpt>
      <trkpt lat="49.21677" lon="1.7131">
        <ele>95</ele>
        <time>2010-01-01T00:00:00Z</time>
      </trkpt>
      <trkpt lat="49.2161" lon="1.71213">
        <ele>98.4</ele>
        <time>2010-01-01T00:00:00Z</time>
      </trkpt>
      <trkpt lat="49.21591" lon="1.71181">
        <ele>99.4</ele>
        <time>2010-01-01T00:00:00Z</time>
      </trkpt>
      <trkpt lat="49.21569" lon="1.71141">
        <ele>100.5</ele>
        <time>2010-01-01T00:00:00Z</time>
      </trkpt>
      <trkpt lat="49.2152" lon="1.71044">
        <ele>102.3</ele>
        <time>2010-01-01T00:00:00Z</time>
      </trkpt>
      <trkpt lat="49.2149" lon="1.70987">
        <ele>103.5</ele>
        <time>2010-01-01T00:00:00Z</time>
      </trkpt>
      <trkpt lat="49.21476" lon="1.70969">
        <ele>104.6</ele>
        <time>2010-01-01T00:00:00Z</time>
      </trkpt>
      <trkpt lat="49.21472" lon="1.70967">
        <ele>104.8</ele>
        <time>2010-01-01T00:00:00Z</time>
      </trkpt>
      <trkpt lat="49.2147" lon="1.70967">
        <ele>104.9</ele>
        <time>2010-01-01T00:00:00Z</time>
      </trkpt>
      <trkpt lat="49.2147" lon="1.70967">
        <ele>104.9</ele>
        <time>2010-01-01T00:00:00Z</time>
      </trkpt>
      <trkpt lat="49.21463" lon="1.7097">
        <ele>105.3</ele>
        <time>2010-01-01T00:00:00Z</time>
      </trkpt>
      <trkpt lat="49.21458" lon="1.70976">
        <ele>105.4</ele>
        <time>2010-01-01T00:00:00Z</time>
      </trkpt>
      <trkpt lat="49.21452" lon="1.70987">
        <ele>105.6</ele>
        <time>2010-01-01T00:00:00Z</time>
      </trkpt>
      <trkpt lat="49.21442" lon="1.71003">
        <ele>106.4</ele>
        <time>2010-01-01T00:00:00Z</time>
      </trkpt>
      <trkpt lat="49.21433" lon="1.71018">
        <ele>107.6</ele>
        <time>2010-01-01T00:00:00Z</time>
      </trkpt>
      <trkpt lat="49.21412" lon="1.71042">
        <ele>110.1</ele>
        <time>2010-01-01T00:00:00Z</time>
      </trkpt>
      <trkpt lat="49.21407" lon="1.71046">
        <ele>110.9</ele>
        <time>2010-01-01T00:00:00Z</time>
      </trkpt>
      <trkpt lat="49.21406" lon="1.71053">
        <ele>111.4</ele>
        <time>2010-01-01T00:00:00Z</time>
      </trkpt>
      <trkpt lat="49.21402" lon="1.71059">
        <ele>112.2</ele>
        <time>2010-01-01T00:00:00Z</time>
      </trkpt>
      <trkpt lat="49.21402" lon="1.71059">
        <ele>112.2</ele>
        <time>2010-01-01T00:00:00Z</time>
      </trkpt>
      <trkpt lat="49.21406" lon="1.71053">
        <ele>111.4</ele>
        <time>2010-01-01T00:00:00Z</time>
      </trkpt>
      <trkpt lat="49.21407" lon="1.71046">
        <ele>110.9</ele>
        <time>2010-01-01T00:00:00Z</time>
      </trkpt>
      <trkpt lat="49.21396" lon="1.71038">
        <ele>111.9</ele>
        <time>2010-01-01T00:00:00Z</time>
      </trkpt>
      <trkpt lat="49.21379" lon="1.71017">
        <ele>112.7</ele>
        <time>2010-01-01T00:00:00Z</time>
      </trkpt>
      <trkpt lat="49.21367" lon="1.71011">
        <ele>113.8</ele>
        <time>2010-01-01T00:00:00Z</time>
      </trkpt>
      <trkpt lat="49.21364" lon="1.7101">
        <ele>114</ele>
        <time>2010-01-01T00:00:00Z</time>
      </trkpt>
      <trkpt lat="49.21352" lon="1.70996">
        <ele>114.1</ele>
        <time>2010-01-01T00:00:00Z</time>
      </trkpt>
      <trkpt lat="49.21326" lon="1.70972">
        <ele>114.3</ele>
        <time>2010-01-01T00:00:00Z</time>
      </trkpt>
      <trkpt lat="49.21286" lon="1.70929">
        <ele>114.7</ele>
        <time>2010-01-01T00:00:00Z</time>
      </trkpt>
      <trkpt lat="49.21251" lon="1.70888">
        <ele>113.9</ele>
        <time>2010-01-01T00:00:00Z</time>
      </trkpt>
      <trkpt lat="49.21232" lon="1.70857">
        <ele>113.6</ele>
        <time>2010-01-01T00:00:00Z</time>
      </trkpt>
      <trkpt lat="49.21213" lon="1.70815">
        <ele>113.3</ele>
        <time>2010-01-01T00:00:00Z</time>
      </trkpt>
      <trkpt lat="49.21188" lon="1.7075">
        <ele>113</ele>
        <time>2010-01-01T00:00:00Z</time>
      </trkpt>
      <trkpt lat="49.21179" lon="1.70729">
        <ele>112.2</ele>
        <time>2010-01-01T00:00:00Z</time>
      </trkpt>
      <trkpt lat="49.21147" lon="1.70649">
        <ele>111.7</ele>
        <time>2010-01-01T00:00:00Z</time>
      </trkpt>
      <trkpt lat="49.21133" lon="1.70609">
        <ele>111.7</ele>
        <time>2010-01-01T00:00:00Z</time>
      </trkpt>
      <trkpt lat="49.21128" lon="1.70586">
        <ele>111.1</ele>
        <time>2010-01-01T00:00:00Z</time>
      </trkpt>
      <trkpt lat="49.21112" lon="1.70479">
        <ele>112</ele>
        <time>2010-01-01T00:00:00Z</time>
      </trkpt>
      <trkpt lat="49.21101" lon="1.70393">
        <ele>111.1</ele>
        <time>2010-01-01T00:00:00Z</time>
      </trkpt>
      <trkpt lat="49.21094" lon="1.70352">
        <ele>111</ele>
        <time>2010-01-01T00:00:00Z</time>
      </trkpt>
      <trkpt lat="49.21092" lon="1.70337">
        <ele>111</ele>
        <time>2010-01-01T00:00:00Z</time>
      </trkpt>
      <trkpt lat="49.21081" lon="1.70294">
        <ele>110.5</ele>
        <time>2010-01-01T00:00:00Z</time>
      </trkpt>
      <trkpt lat="49.21069" lon="1.70252">
        <ele>110</ele>
        <time>2010-01-01T00:00:00Z</time>
      </trkpt>
      <trkpt lat="49.21066" lon="1.70241">
        <ele>109.8</ele>
        <time>2010-01-01T00:00:00Z</time>
      </trkpt>
      <trkpt lat="49.2103" lon="1.70131">
        <ele>108.1</ele>
        <time>2010-01-01T00:00:00Z</time>
      </trkpt>
      <trkpt lat="49.21021" lon="1.70103">
        <ele>108</ele>
        <time>2010-01-01T00:00:00Z</time>
      </trkpt>
      <trkpt lat="49.21019" lon="1.70097">
        <ele>108</ele>
        <time>2010-01-01T00:00:00Z</time>
      </trkpt>
      <trkpt lat="49.2099" lon="1.70126">
        <ele>106.6</ele>
        <time>2010-01-01T00:00:00Z</time>
      </trkpt>
      <trkpt lat="49.20942" lon="1.70174">
        <ele>106.2</ele>
        <time>2010-01-01T00:00:00Z</time>
      </trkpt>
      <trkpt lat="49.20898" lon="1.70222">
        <ele>106.3</ele>
        <time>2010-01-01T00:00:00Z</time>
      </trkpt>
      <trkpt lat="49.20837" lon="1.70289">
        <ele>107.9</ele>
        <time>2010-01-01T00:00:00Z</time>
      </trkpt>
      <trkpt lat="49.20768" lon="1.70357">
        <ele>108.5</ele>
        <time>2010-01-01T00:00:00Z</time>
      </trkpt>
      <trkpt lat="49.20752" lon="1.70375">
        <ele>108.5</ele>
        <time>2010-01-01T00:00:00Z</time>
      </trkpt>
      <trkpt lat="49.20748" lon="1.70379">
        <ele>108.6</ele>
        <time>2010-01-01T00:00:00Z</time>
      </trkpt>
      <trkpt lat="49.20746" lon="1.70377">
        <ele>108.5</ele>
        <time>2010-01-01T00:00:00Z</time>
      </trkpt>
      <trkpt lat="49.20743" lon="1.70375">
        <ele>108.4</ele>
        <time>2010-01-01T00:00:00Z</time>
      </trkpt>
      <trkpt lat="49.20738" lon="1.70374">
        <ele>108.2</ele>
        <time>2010-01-01T00:00:00Z</time>
      </trkpt>
      <trkpt lat="49.20735" lon="1.70375">
        <ele>108.2</ele>
        <time>2010-01-01T00:00:00Z</time>
      </trkpt>
      <trkpt lat="49.20731" lon="1.70379">
        <ele>108.4</ele>
        <time>2010-01-01T00:00:00Z</time>
      </trkpt>
      <trkpt lat="49.20729" lon="1.70381">
        <ele>108.5</ele>
        <time>2010-01-01T00:00:00Z</time>
      </trkpt>
      <trkpt lat="49.20726" lon="1.70388">
        <ele>108.9</ele>
        <time>2010-01-01T00:00:00Z</time>
      </trkpt>
      <trkpt lat="49.20725" lon="1.70394">
        <ele>109</ele>
        <time>2010-01-01T00:00:00Z</time>
      </trkpt>
      <trkpt lat="49.20725" lon="1.70399">
        <ele>109</ele>
        <time>2010-01-01T00:00:00Z</time>
      </trkpt>
      <trkpt lat="49.20725" lon="1.70403">
        <ele>109</ele>
        <time>2010-01-01T00:00:00Z</time>
      </trkpt>
      <trkpt lat="49.20726" lon="1.70406">
        <ele>109</ele>
        <time>2010-01-01T00:00:00Z</time>
      </trkpt>
      <trkpt lat="49.20709" lon="1.7043">
        <ele>108.8</ele>
        <time>2010-01-01T00:00:00Z</time>
      </trkpt>
      <trkpt lat="49.2069" lon="1.70453">
        <ele>109</ele>
        <time>2010-01-01T00:00:00Z</time>
      </trkpt>
      <trkpt lat="49.20682" lon="1.70468">
        <ele>109</ele>
        <time>2010-01-01T00:00:00Z</time>
      </trkpt>
      <trkpt lat="49.20671" lon="1.7049">
        <ele>109</ele>
        <time>2010-01-01T00:00:00Z</time>
      </trkpt>
      <trkpt lat="49.20665" lon="1.70499">
        <ele>108.9</ele>
        <time>2010-01-01T00:00:00Z</time>
      </trkpt>
      <trkpt lat="49.20661" lon="1.70504">
        <ele>108.8</ele>
        <time>2010-01-01T00:00:00Z</time>
      </trkpt>
      <trkpt lat="49.20641" lon="1.70533">
        <ele>108.2</ele>
        <time>2010-01-01T00:00:00Z</time>
      </trkpt>
      <trkpt lat="49.20607" lon="1.70579">
        <ele>109</ele>
        <time>2010-01-01T00:00:00Z</time>
      </trkpt>
      <trkpt lat="49.20568" lon="1.70631">
        <ele>109.4</ele>
        <time>2010-01-01T00:00:00Z</time>
      </trkpt>
      <trkpt lat="49.20562" lon="1.70641">
        <ele>109.8</ele>
        <time>2010-01-01T00:00:00Z</time>
      </trkpt>
      <trkpt lat="49.20554" lon="1.70649">
        <ele>110</ele>
        <time>2010-01-01T00:00:00Z</time>
      </trkpt>
      <trkpt lat="49.20546" lon="1.70655">
        <ele>110</ele>
        <time>2010-01-01T00:00:00Z</time>
      </trkpt>
      <trkpt lat="49.20531" lon="1.70664">
        <ele>110</ele>
        <time>2010-01-01T00:00:00Z</time>
      </trkpt>
      <trkpt lat="49.20521" lon="1.70668">
        <ele>110.3</ele>
        <time>2010-01-01T00:00:00Z</time>
      </trkpt>
      <trkpt lat="49.20521" lon="1.7067">
        <ele>110.3</ele>
        <time>2010-01-01T00:00:00Z</time>
      </trkpt>
      <trkpt lat="49.20518" lon="1.7068">
        <ele>110.7</ele>
        <time>2010-01-01T00:00:00Z</time>
      </trkpt>
      <trkpt lat="49.20517" lon="1.70683">
        <ele>110.7</ele>
        <time>2010-01-01T00:00:00Z</time>
      </trkpt>
      <trkpt lat="49.20515" lon="1.70687">
        <ele>110.9</ele>
        <time>2010-01-01T00:00:00Z</time>
      </trkpt>
      <trkpt lat="49.20511" lon="1.70693">
        <ele>111</ele>
        <time>2010-01-01T00:00:00Z</time>
      </trkpt>
      <trkpt lat="49.20507" lon="1.70699">
        <ele>110.8</ele>
        <time>2010-01-01T00:00:00Z</time>
      </trkpt>
      <trkpt lat="49.20499" lon="1.70712">
        <ele>110.4</ele>
        <time>2010-01-01T00:00:00Z</time>
      </trkpt>
      <trkpt lat="49.20499" lon="1.70713">
        <ele>110.4</ele>
        <time>2010-01-01T00:00:00Z</time>
      </trkpt>
      <trkpt lat="49.20494" lon="1.7072">
        <ele>110.3</ele>
        <time>2010-01-01T00:00:00Z</time>
      </trkpt>
      <trkpt lat="49.20482" lon="1.70736">
        <ele>110.3</ele>
        <time>2010-01-01T00:00:00Z</time>
      </trkpt>
      <trkpt lat="49.20475" lon="1.70743">
        <ele>110.2</ele>
        <time>2010-01-01T00:00:00Z</time>
      </trkpt>
      <trkpt lat="49.20467" lon="1.7075">
        <ele>110.2</ele>
        <time>2010-01-01T00:00:00Z</time>
      </trkpt>
      <trkpt lat="49.20449" lon="1.70764">
        <ele>110.4</ele>
        <time>2010-01-01T00:00:00Z</time>
      </trkpt>
      <trkpt lat="49.20447" lon="1.70765">
        <ele>110.4</ele>
        <time>2010-01-01T00:00:00Z</time>
      </trkpt>
      <trkpt lat="49.20439" lon="1.70771">
        <ele>110.4</ele>
        <time>2010-01-01T00:00:00Z</time>
      </trkpt>
      <trkpt lat="49.20418" lon="1.70787">
        <ele>110.6</ele>
        <time>2010-01-01T00:00:00Z</time>
      </trkpt>
      <trkpt lat="49.20407" lon="1.70795">
        <ele>110.4</ele>
        <time>2010-01-01T00:00:00Z</time>
      </trkpt>
      <trkpt lat="49.20391" lon="1.70807">
        <ele>110</ele>
        <time>2010-01-01T00:00:00Z</time>
      </trkpt>
      <trkpt lat="49.20385" lon="1.70811">
        <ele>110.1</ele>
        <time>2010-01-01T00:00:00Z</time>
      </trkpt>
      <trkpt lat="49.20375" lon="1.70817">
        <ele>110.3</ele>
        <time>2010-01-01T00:00:00Z</time>
      </trkpt>
      <trkpt lat="49.20365" lon="1.70821">
        <ele>110.4</ele>
        <time>2010-01-01T00:00:00Z</time>
      </trkpt>
      <trkpt lat="49.20358" lon="1.70825">
        <ele>110.3</ele>
        <time>2010-01-01T00:00:00Z</time>
      </trkpt>
      <trkpt lat="49.20345" lon="1.70832">
        <ele>110</ele>
        <time>2010-01-01T00:00:00Z</time>
      </trkpt>
      <trkpt lat="49.2034" lon="1.70838">
        <ele>110</ele>
        <time>2010-01-01T00:00:00Z</time>
      </trkpt>
      <trkpt lat="49.2034" lon="1.70842">
        <ele>110</ele>
        <time>2010-01-01T00:00:00Z</time>
      </trkpt>
      <trkpt lat="49.20336" lon="1.7084">
        <ele>110</ele>
        <time>2010-01-01T00:00:00Z</time>
      </trkpt>
      <trkpt lat="49.20331" lon="1.70837">
        <ele>110</ele>
        <time>2010-01-01T00:00:00Z</time>
      </trkpt>
      <trkpt lat="49.20317" lon="1.7084">
        <ele>110</ele>
        <time>2010-01-01T00:00:00Z</time>
      </trkpt>
      <trkpt lat="49.20241" lon="1.70889">
        <ele>110</ele>
        <time>2010-01-01T00:00:00Z</time>
      </trkpt>
      <trkpt lat="49.20201" lon="1.7092">
        <ele>109.2</ele>
        <time>2010-01-01T00:00:00Z</time>
      </trkpt>
      <trkpt lat="49.20158" lon="1.7096">
        <ele>106.8</ele>
        <time>2010-01-01T00:00:00Z</time>
      </trkpt>
      <trkpt lat="49.20155" lon="1.70963">
        <ele>106.5</ele>
        <time>2010-01-01T00:00:00Z</time>
      </trkpt>
      <trkpt lat="49.20144" lon="1.70973">
        <ele>105.3</ele>
        <time>2010-01-01T00:00:00Z</time>
      </trkpt>
      <trkpt lat="49.20087" lon="1.71017">
        <ele>94.6</ele>
        <time>2010-01-01T00:00:00Z</time>
      </trkpt>
      <trkpt lat="49.20083" lon="1.71022">
        <ele>93.6</ele>
        <time>2010-01-01T00:00:00Z</time>
      </trkpt>
      <trkpt lat="49.20065" lon="1.71045">
        <ele>89.4</ele>
        <time>2010-01-01T00:00:00Z</time>
      </trkpt>
      <trkpt lat="49.20063" lon="1.71051">
        <ele>88.4</ele>
        <time>2010-01-01T00:00:00Z</time>
      </trkpt>
      <trkpt lat="49.20056" lon="1.71074">
        <ele>85.1</ele>
        <time>2010-01-01T00:00:00Z</time>
      </trkpt>
      <trkpt lat="49.20051" lon="1.71082">
        <ele>83.8</ele>
        <time>2010-01-01T00:00:00Z</time>
      </trkpt>
      <trkpt lat="49.20039" lon="1.71097">
        <ele>81.5</ele>
        <time>2010-01-01T00:00:00Z</time>
      </trkpt>
      <trkpt lat="49.20024" lon="1.71108">
        <ele>78.9</ele>
        <time>2010-01-01T00:00:00Z</time>
      </trkpt>
      <trkpt lat="49.20017" lon="1.71113">
        <ele>77.6</ele>
        <time>2010-01-01T00:00:00Z</time>
      </trkpt>
      <trkpt lat="49.20003" lon="1.71123">
        <ele>75</ele>
        <time>2010-01-01T00:00:00Z</time>
      </trkpt>
      <trkpt lat="49.19964" lon="1.71159">
        <ele>67.4</ele>
        <time>2010-01-01T00:00:00Z</time>
      </trkpt>
      <trkpt lat="49.19953" lon="1.71167">
        <ele>65.2</ele>
        <time>2010-01-01T00:00:00Z</time>
      </trkpt>
      <trkpt lat="49.1995" lon="1.71169">
        <ele>64.7</ele>
        <time>2010-01-01T00:00:00Z</time>
      </trkpt>
      <trkpt lat="49.1994" lon="1.71177">
        <ele>63.2</ele>
        <time>2010-01-01T00:00:00Z</time>
      </trkpt>
      <trkpt lat="49.19924" lon="1.71146">
        <ele>62.9</ele>
        <time>2010-01-01T00:00:00Z</time>
      </trkpt>
      <trkpt lat="49.19893" lon="1.71089">
        <ele>62.3</ele>
        <time>2010-01-01T00:00:00Z</time>
      </trkpt>
      <trkpt lat="49.19859" lon="1.71055">
        <ele>62</ele>
        <time>2010-01-01T00:00:00Z</time>
      </trkpt>
      <trkpt lat="49.19848" lon="1.71048">
        <ele>62.6</ele>
        <time>2010-01-01T00:00:00Z</time>
      </trkpt>
      <trkpt lat="49.19848" lon="1.71048">
        <ele>62.6</ele>
        <time>2010-01-01T00:00:00Z</time>
      </trkpt>
      <trkpt lat="49.19847" lon="1.71048">
        <ele>62.6</ele>
        <time>2010-01-01T00:00:00Z</time>
      </trkpt>
      <trkpt lat="49.19836" lon="1.7105">
        <ele>61.7</ele>
        <time>2010-01-01T00:00:00Z</time>
      </trkpt>
      <trkpt lat="49.19829" lon="1.71055">
        <ele>60.7</ele>
        <time>2010-01-01T00:00:00Z</time>
      </trkpt>
      <trkpt lat="49.19822" lon="1.71068">
        <ele>59.7</ele>
        <time>2010-01-01T00:00:00Z</time>
      </trkpt>
      <trkpt lat="49.19812" lon="1.71086">
        <ele>59</ele>
        <time>2010-01-01T00:00:00Z</time>
      </trkpt>
      <trkpt lat="49.19773" lon="1.7113">
        <ele>59.9</ele>
        <time>2010-01-01T00:00:00Z</time>
      </trkpt>
      <trkpt lat="49.19747" lon="1.71165">
        <ele>63.2</ele>
        <time>2010-01-01T00:00:00Z</time>
      </trkpt>
      <trkpt lat="49.19744" lon="1.71162">
        <ele>63.3</ele>
        <time>2010-01-01T00:00:00Z</time>
      </trkpt>
      <trkpt lat="49.19737" lon="1.71155">
        <ele>63.8</ele>
        <time>2010-01-01T00:00:00Z</time>
      </trkpt>
      <trkpt lat="49.19723" lon="1.71147">
        <ele>65.2</ele>
        <time>2010-01-01T00:00:00Z</time>
      </trkpt>
      <trkpt lat="49.19705" lon="1.71139">
        <ele>66.2</ele>
        <time>2010-01-01T00:00:00Z</time>
      </trkpt>
      <trkpt lat="49.19697" lon="1.71144">
        <ele>67.2</ele>
        <time>2010-01-01T00:00:00Z</time>
      </trkpt>
      <trkpt lat="49.1968" lon="1.71142">
        <ele>68.3</ele>
        <time>2010-01-01T00:00:00Z</time>
      </trkpt>
      <trkpt lat="49.1968" lon="1.71142">
        <ele>68.3</ele>
        <time>2010-01-01T00:00:00Z</time>
      </trkpt>
      <trkpt lat="49.19697" lon="1.71144">
        <ele>67.2</ele>
        <time>2010-01-01T00:00:00Z</time>
      </trkpt>
      <trkpt lat="49.19705" lon="1.71139">
        <ele>66.2</ele>
        <time>2010-01-01T00:00:00Z</time>
      </trkpt>
      <trkpt lat="49.19723" lon="1.71147">
        <ele>65.2</ele>
        <time>2010-01-01T00:00:00Z</time>
      </trkpt>
      <trkpt lat="49.19737" lon="1.71155">
        <ele>63.8</ele>
        <time>2010-01-01T00:00:00Z</time>
      </trkpt>
      <trkpt lat="49.19744" lon="1.71162">
        <ele>63.3</ele>
        <time>2010-01-01T00:00:00Z</time>
      </trkpt>
      <trkpt lat="49.19747" lon="1.71165">
        <ele>63.2</ele>
        <time>2010-01-01T00:00:00Z</time>
      </trkpt>
      <trkpt lat="49.19758" lon="1.71175">
        <ele>62.8</ele>
        <time>2010-01-01T00:00:00Z</time>
      </trkpt>
      <trkpt lat="49.19773" lon="1.71192">
        <ele>63</ele>
        <time>2010-01-01T00:00:00Z</time>
      </trkpt>
      <trkpt lat="49.19773" lon="1.71192">
        <ele>63</ele>
        <time>2010-01-01T00:00:00Z</time>
      </trkpt>
      <trkpt lat="49.19773" lon="1.71192">
        <ele>63</ele>
        <time>2010-01-01T00:00:00Z</time>
      </trkpt>
      <trkpt lat="49.19758" lon="1.71175">
        <ele>62.8</ele>
        <time>2010-01-01T00:00:00Z</time>
      </trkpt>
      <trkpt lat="49.19747" lon="1.71165">
        <ele>63.2</ele>
        <time>2010-01-01T00:00:00Z</time>
      </trkpt>
      <trkpt lat="49.19744" lon="1.71162">
        <ele>63.3</ele>
        <time>2010-01-01T00:00:00Z</time>
      </trkpt>
      <trkpt lat="49.19737" lon="1.71155">
        <ele>63.8</ele>
        <time>2010-01-01T00:00:00Z</time>
      </trkpt>
      <trkpt lat="49.19723" lon="1.71147">
        <ele>65.2</ele>
        <time>2010-01-01T00:00:00Z</time>
      </trkpt>
      <trkpt lat="49.19705" lon="1.71139">
        <ele>66.2</ele>
        <time>2010-01-01T00:00:00Z</time>
      </trkpt>
      <trkpt lat="49.19704" lon="1.71132">
        <ele>66</ele>
        <time>2010-01-01T00:00:00Z</time>
      </trkpt>
      <trkpt lat="49.19678" lon="1.71058">
        <ele>63.4</ele>
        <time>2010-01-01T00:00:00Z</time>
      </trkpt>
      <trkpt lat="49.19675" lon="1.71048">
        <ele>62.9</ele>
        <time>2010-01-01T00:00:00Z</time>
      </trkpt>
      <trkpt lat="49.19672" lon="1.71037">
        <ele>62.3</ele>
        <time>2010-01-01T00:00:00Z</time>
      </trkpt>
      <trkpt lat="49.19672" lon="1.71037">
        <ele>62.3</ele>
        <time>2010-01-01T00:00:00Z</time>
      </trkpt>
      <trkpt lat="49.19662" lon="1.70996">
        <ele>61</ele>
        <time>2010-01-01T00:00:00Z</time>
      </trkpt>
      <trkpt lat="49.19657" lon="1.70982">
        <ele>60.9</ele>
        <time>2010-01-01T00:00:00Z</time>
      </trkpt>
      <trkpt lat="49.19645" lon="1.70937">
        <ele>60.7</ele>
        <time>2010-01-01T00:00:00Z</time>
      </trkpt>
      <trkpt lat="49.19644" lon="1.70931">
        <ele>60.7</ele>
        <time>2010-01-01T00:00:00Z</time>
      </trkpt>
      <trkpt lat="49.19635" lon="1.70899">
        <ele>61.1</ele>
        <time>2010-01-01T00:00:00Z</time>
      </trkpt>
      <trkpt lat="49.19634" lon="1.70889">
        <ele>61.2</ele>
        <time>2010-01-01T00:00:00Z</time>
      </trkpt>
      <trkpt lat="49.19634" lon="1.70858">
        <ele>61.1</ele>
        <time>2010-01-01T00:00:00Z</time>
      </trkpt>
      <trkpt lat="49.19631" lon="1.70843">
        <ele>60.8</ele>
        <time>2010-01-01T00:00:00Z</time>
      </trkpt>
      <trkpt lat="49.19628" lon="1.70832">
        <ele>60.8</ele>
        <time>2010-01-01T00:00:00Z</time>
      </trkpt>
      <trkpt lat="49.19625" lon="1.70819">
        <ele>60.7</ele>
        <time>2010-01-01T00:00:00Z</time>
      </trkpt>
      <trkpt lat="49.19612" lon="1.70784">
        <ele>61.1</ele>
        <time>2010-01-01T00:00:00Z</time>
      </trkpt>
      <trkpt lat="49.196" lon="1.70743">
        <ele>61</ele>
        <time>2010-01-01T00:00:00Z</time>
      </trkpt>
      <trkpt lat="49.19578" lon="1.70646">
        <ele>61.8</ele>
        <time>2010-01-01T00:00:00Z</time>
      </trkpt>
      <trkpt lat="49.19575" lon="1.70626">
        <ele>61.8</ele>
        <time>2010-01-01T00:00:00Z</time>
      </trkpt>
      <trkpt lat="49.19574" lon="1.70597">
        <ele>61.7</ele>
        <time>2010-01-01T00:00:00Z</time>
      </trkpt>
      <trkpt lat="49.1957" lon="1.70543">
        <ele>62.2</ele>
        <time>2010-01-01T00:00:00Z</time>
      </trkpt>
      <trkpt lat="49.19568" lon="1.705">
        <ele>63.7</ele>
        <time>2010-01-01T00:00:00Z</time>
      </trkpt>
      <trkpt lat="49.19565" lon="1.70471">
        <ele>64</ele>
        <time>2010-01-01T00:00:00Z</time>
      </trkpt>
      <trkpt lat="49.19563" lon="1.70456">
        <ele>64.5</ele>
        <time>2010-01-01T00:00:00Z</time>
      </trkpt>
      <trkpt lat="49.19544" lon="1.70398">
        <ele>65</ele>
        <time>2010-01-01T00:00:00Z</time>
      </trkpt>
      <trkpt lat="49.1954" lon="1.70384">
        <ele>64.9</ele>
        <time>2010-01-01T00:00:00Z</time>
      </trkpt>
      <trkpt lat="49.19511" lon="1.70286">
        <ele>66.5</ele>
        <time>2010-01-01T00:00:00Z</time>
      </trkpt>
      <trkpt lat="49.19511" lon="1.70286">
        <ele>66.5</ele>
        <time>2010-01-01T00:00:00Z</time>
      </trkpt>
      <trkpt lat="49.19447" lon="1.70068">
        <ele>73.5</ele>
        <time>2010-01-01T00:00:00Z</time>
      </trkpt>
      <trkpt lat="49.19411" lon="1.69957">
        <ele>79.2</ele>
        <time>2010-01-01T00:00:00Z</time>
      </trkpt>
      <trkpt lat="49.19389" lon="1.69898">
        <ele>84.3</ele>
        <time>2010-01-01T00:00:00Z</time>
      </trkpt>
      <trkpt lat="49.19376" lon="1.69852">
        <ele>87.4</ele>
        <time>2010-01-01T00:00:00Z</time>
      </trkpt>
      <trkpt lat="49.19372" lon="1.6983">
        <ele>88.7</ele>
        <time>2010-01-01T00:00:00Z</time>
      </trkpt>
      <trkpt lat="49.19363" lon="1.69798">
        <ele>90.2</ele>
        <time>2010-01-01T00:00:00Z</time>
      </trkpt>
      <trkpt lat="49.19344" lon="1.69732">
        <ele>92.4</ele>
        <time>2010-01-01T00:00:00Z</time>
      </trkpt>
      <trkpt lat="49.19342" lon="1.6973">
        <ele>92.5</ele>
        <time>2010-01-01T00:00:00Z</time>
      </trkpt>
      <trkpt lat="49.19338" lon="1.69713">
        <ele>92.9</ele>
        <time>2010-01-01T00:00:00Z</time>
      </trkpt>
      <trkpt lat="49.19328" lon="1.69663">
        <ele>94</ele>
        <time>2010-01-01T00:00:00Z</time>
      </trkpt>
      <trkpt lat="49.19321" lon="1.69649">
        <ele>94.3</ele>
        <time>2010-01-01T00:00:00Z</time>
      </trkpt>
      <trkpt lat="49.19313" lon="1.69642">
        <ele>94.7</ele>
        <time>2010-01-01T00:00:00Z</time>
      </trkpt>
      <trkpt lat="49.19278" lon="1.69631">
        <ele>96</ele>
        <time>2010-01-01T00:00:00Z</time>
      </trkpt>
      <trkpt lat="49.192" lon="1.69595">
        <ele>98.4</ele>
        <time>2010-01-01T00:00:00Z</time>
      </trkpt>
      <trkpt lat="49.19189" lon="1.69628">
        <ele>97.5</ele>
        <time>2010-01-01T00:00:00Z</time>
      </trkpt>
      <trkpt lat="49.19189" lon="1.69628">
        <ele>97.5</ele>
        <time>2010-01-01T00:00:00Z</time>
      </trkpt>
      <trkpt lat="49.1917" lon="1.69689">
        <ele>95.2</ele>
        <time>2010-01-01T00:00:00Z</time>
      </trkpt>
      <trkpt lat="49.19133" lon="1.6982">
        <ele>92.4</ele>
        <time>2010-01-01T00:00:00Z</time>
      </trkpt>
      <trkpt lat="49.19032" lon="1.70182">
        <ele>99.8</ele>
        <time>2010-01-01T00:00:00Z</time>
      </trkpt>
      <trkpt lat="49.18919" lon="1.70584">
        <ele>110</ele>
        <time>2010-01-01T00:00:00Z</time>
      </trkpt>
      <trkpt lat="49.18919" lon="1.70585">
        <ele>110</ele>
        <time>2010-01-01T00:00:00Z</time>
      </trkpt>
      <trkpt lat="49.18919" lon="1.70585">
        <ele>110</ele>
        <time>2010-01-01T00:00:00Z</time>
      </trkpt>
      <trkpt lat="49.18914" lon="1.70606">
        <ele>110</ele>
        <time>2010-01-01T00:00:00Z</time>
      </trkpt>
      <trkpt lat="49.18912" lon="1.70613">
        <ele>110</ele>
        <time>2010-01-01T00:00:00Z</time>
      </trkpt>
      <trkpt lat="49.1891" lon="1.70627">
        <ele>110</ele>
        <time>2010-01-01T00:00:00Z</time>
      </trkpt>
      <trkpt lat="49.18907" lon="1.70668">
        <ele>110</ele>
        <time>2010-01-01T00:00:00Z</time>
      </trkpt>
      <trkpt lat="49.18907" lon="1.70698">
        <ele>109.9</ele>
        <time>2010-01-01T00:00:00Z</time>
      </trkpt>
      <trkpt lat="49.18852" lon="1.70758">
        <ele>107.7</ele>
        <time>2010-01-01T00:00:00Z</time>
      </trkpt>
      <trkpt lat="49.18841" lon="1.70781">
        <ele>107.2</ele>
        <time>2010-01-01T00:00:00Z</time>
      </trkpt>
      <trkpt lat="49.18833" lon="1.70803">
        <ele>106.1</ele>
        <time>2010-01-01T00:00:00Z</time>
      </trkpt>
      <trkpt lat="49.18826" lon="1.70815">
        <ele>106.2</ele>
        <time>2010-01-01T00:00:00Z</time>
      </trkpt>
      <trkpt lat="49.18818" lon="1.70831">
        <ele>106</ele>
        <time>2010-01-01T00:00:00Z</time>
      </trkpt>
      <trkpt lat="49.18813" lon="1.70843">
        <ele>105.9</ele>
        <time>2010-01-01T00:00:00Z</time>
      </trkpt>
      <trkpt lat="49.18801" lon="1.70874">
        <ele>105.6</ele>
        <time>2010-01-01T00:00:00Z</time>
      </trkpt>
      <trkpt lat="49.18796" lon="1.70888">
        <ele>105.4</ele>
        <time>2010-01-01T00:00:00Z</time>
      </trkpt>
      <trkpt lat="49.18796" lon="1.70888">
        <ele>105.4</ele>
        <time>2010-01-01T00:00:00Z</time>
      </trkpt>
      <trkpt lat="49.18787" lon="1.7091">
        <ele>105.7</ele>
        <time>2010-01-01T00:00:00Z</time>
      </trkpt>
      <trkpt lat="49.18778" lon="1.70932">
        <ele>105.4</ele>
        <time>2010-01-01T00:00:00Z</time>
      </trkpt>
      <trkpt lat="49.18773" lon="1.70942">
        <ele>105.2</ele>
        <time>2010-01-01T00:00:00Z</time>
      </trkpt>
      <trkpt lat="49.18766" lon="1.7095">
        <ele>105.4</ele>
        <time>2010-01-01T00:00:00Z</time>
      </trkpt>
      <trkpt lat="49.1876" lon="1.70963">
        <ele>105.6</ele>
        <time>2010-01-01T00:00:00Z</time>
      </trkpt>
      <trkpt lat="49.18756" lon="1.7097">
        <ele>105.8</ele>
        <time>2010-01-01T00:00:00Z</time>
      </trkpt>
      <trkpt lat="49.18743" lon="1.70987">
        <ele>106.3</ele>
        <time>2010-01-01T00:00:00Z</time>
      </trkpt>
      <trkpt lat="49.18741" lon="1.70989">
        <ele>106.3</ele>
        <time>2010-01-01T00:00:00Z</time>
      </trkpt>
      <trkpt lat="49.18731" lon="1.71008">
        <ele>106.7</ele>
        <time>2010-01-01T00:00:00Z</time>
      </trkpt>
      <trkpt lat="49.18723" lon="1.71017">
        <ele>107</ele>
        <time>2010-01-01T00:00:00Z</time>
      </trkpt>
      <trkpt lat="49.18714" lon="1.71039">
        <ele>107</ele>
        <time>2010-01-01T00:00:00Z</time>
      </trkpt>
      <trkpt lat="49.18675" lon="1.71115">
        <ele>107.7</ele>
        <time>2010-01-01T00:00:00Z</time>
      </trkpt>
      <trkpt lat="49.18658" lon="1.71148">
        <ele>108.3</ele>
        <time>2010-01-01T00:00:00Z</time>
      </trkpt>
      <trkpt lat="49.18643" lon="1.71195">
        <ele>108.7</ele>
        <time>2010-01-01T00:00:00Z</time>
      </trkpt>
      <trkpt lat="49.18637" lon="1.71219">
        <ele>108.2</ele>
        <time>2010-01-01T00:00:00Z</time>
      </trkpt>
      <trkpt lat="49.18635" lon="1.71232">
        <ele>108.1</ele>
        <time>2010-01-01T00:00:00Z</time>
      </trkpt>
      <trkpt lat="49.18635" lon="1.71237">
        <ele>108.1</ele>
        <time>2010-01-01T00:00:00Z</time>
      </trkpt>
      <trkpt lat="49.18634" lon="1.71301">
        <ele>107.2</ele>
        <time>2010-01-01T00:00:00Z</time>
      </trkpt>
      <trkpt lat="49.18632" lon="1.71353">
        <ele>105.5</ele>
        <time>2010-01-01T00:00:00Z</time>
      </trkpt>
      <trkpt lat="49.18631" lon="1.71424">
        <ele>102</ele>
        <time>2010-01-01T00:00:00Z</time>
      </trkpt>
      <trkpt lat="49.18631" lon="1.71466">
        <ele>101.9</ele>
        <time>2010-01-01T00:00:00Z</time>
      </trkpt>
      <trkpt lat="49.18635" lon="1.71483">
        <ele>102.9</ele>
        <time>2010-01-01T00:00:00Z</time>
      </trkpt>
      <trkpt lat="49.18635" lon="1.71496">
        <ele>103.9</ele>
        <time>2010-01-01T00:00:00Z</time>
      </trkpt>
      <trkpt lat="49.18633" lon="1.71502">
        <ele>104.4</ele>
        <time>2010-01-01T00:00:00Z</time>
      </trkpt>
      <trkpt lat="49.18631" lon="1.71508">
        <ele>105.1</ele>
        <time>2010-01-01T00:00:00Z</time>
      </trkpt>
      <trkpt lat="49.1863" lon="1.71516">
        <ele>105.9</ele>
        <time>2010-01-01T00:00:00Z</time>
      </trkpt>
      <trkpt lat="49.18628" lon="1.71526">
        <ele>106.8</ele>
        <time>2010-01-01T00:00:00Z</time>
      </trkpt>
      <trkpt lat="49.18628" lon="1.7154">
        <ele>108.3</ele>
        <time>2010-01-01T00:00:00Z</time>
      </trkpt>
      <trkpt lat="49.18628" lon="1.71551">
        <ele>109.5</ele>
        <time>2010-01-01T00:00:00Z</time>
      </trkpt>
      <trkpt lat="49.18629" lon="1.71568">
        <ele>110.9</ele>
        <time>2010-01-01T00:00:00Z</time>
      </trkpt>
      <trkpt lat="49.1863" lon="1.71576">
        <ele>111.5</ele>
        <time>2010-01-01T00:00:00Z</time>
      </trkpt>
      <trkpt lat="49.18636" lon="1.71602">
        <ele>112.7</ele>
        <time>2010-01-01T00:00:00Z</time>
      </trkpt>
      <trkpt lat="49.1864" lon="1.7162">
        <ele>113.3</ele>
        <time>2010-01-01T00:00:00Z</time>
      </trkpt>
      <trkpt lat="49.18644" lon="1.71645">
        <ele>113.9</ele>
        <time>2010-01-01T00:00:00Z</time>
      </trkpt>
      <trkpt lat="49.1865" lon="1.71666">
        <ele>114</ele>
        <time>2010-01-01T00:00:00Z</time>
      </trkpt>
      <trkpt lat="49.18654" lon="1.71751">
        <ele>114.5</ele>
        <time>2010-01-01T00:00:00Z</time>
      </trkpt>
      <trkpt lat="49.18648" lon="1.71767">
        <ele>114.9</ele>
        <time>2010-01-01T00:00:00Z</time>
      </trkpt>
      <trkpt lat="49.18647" lon="1.71772">
        <ele>114.9</ele>
        <time>2010-01-01T00:00:00Z</time>
      </trkpt>
      <trkpt lat="49.18644" lon="1.71824">
        <ele>115.8</ele>
        <time>2010-01-01T00:00:00Z</time>
      </trkpt>
      <trkpt lat="49.18645" lon="1.71871">
        <ele>116.3</ele>
        <time>2010-01-01T00:00:00Z</time>
      </trkpt>
      <trkpt lat="49.18645" lon="1.7188">
        <ele>116.5</ele>
        <time>2010-01-01T00:00:00Z</time>
      </trkpt>
      <trkpt lat="49.18646" lon="1.71894">
        <ele>116.7</ele>
        <time>2010-01-01T00:00:00Z</time>
      </trkpt>
      <trkpt lat="49.18648" lon="1.7192">
        <ele>116.6</ele>
        <time>2010-01-01T00:00:00Z</time>
      </trkpt>
      <trkpt lat="49.18648" lon="1.7192">
        <ele>116.6</ele>
        <time>2010-01-01T00:00:00Z</time>
      </trkpt>
      <trkpt lat="49.18649" lon="1.7193">
        <ele>116.3</ele>
        <time>2010-01-01T00:00:00Z</time>
      </trkpt>
      <trkpt lat="49.18643" lon="1.71944">
        <ele>116</ele>
        <time>2010-01-01T00:00:00Z</time>
      </trkpt>
      <trkpt lat="49.18626" lon="1.71995">
        <ele>116.6</ele>
        <time>2010-01-01T00:00:00Z</time>
      </trkpt>
      <trkpt lat="49.18558" lon="1.72192">
        <ele>115.9</ele>
        <time>2010-01-01T00:00:00Z</time>
      </trkpt>
      <trkpt lat="49.18557" lon="1.72196">
        <ele>115.9</ele>
        <time>2010-01-01T00:00:00Z</time>
      </trkpt>
      <trkpt lat="49.18557" lon="1.72196">
        <ele>115.9</ele>
        <time>2010-01-01T00:00:00Z</time>
      </trkpt>
      <trkpt lat="49.18473" lon="1.72422">
        <ele>114</ele>
        <time>2010-01-01T00:00:00Z</time>
      </trkpt>
      <trkpt lat="49.18473" lon="1.72422">
        <ele>114</ele>
        <time>2010-01-01T00:00:00Z</time>
      </trkpt>
      <trkpt lat="49.18467" lon="1.72465">
        <ele>114</ele>
        <time>2010-01-01T00:00:00Z</time>
      </trkpt>
      <trkpt lat="49.18462" lon="1.72491">
        <ele>113.6</ele>
        <time>2010-01-01T00:00:00Z</time>
      </trkpt>
      <trkpt lat="49.18432" lon="1.72589">
        <ele>113.4</ele>
        <time>2010-01-01T00:00:00Z</time>
      </trkpt>
      <trkpt lat="49.18422" lon="1.72627">
        <ele>113.8</ele>
        <time>2010-01-01T00:00:00Z</time>
      </trkpt>
      <trkpt lat="49.18398" lon="1.72693">
        <ele>114.3</ele>
        <time>2010-01-01T00:00:00Z</time>
      </trkpt>
      <trkpt lat="49.18388" lon="1.72717">
        <ele>115.8</ele>
        <time>2010-01-01T00:00:00Z</time>
      </trkpt>
      <trkpt lat="49.18385" lon="1.72724">
        <ele>115.9</ele>
        <time>2010-01-01T00:00:00Z</time>
      </trkpt>
      <trkpt lat="49.18376" lon="1.7275">
        <ele>116.5</ele>
        <time>2010-01-01T00:00:00Z</time>
      </trkpt>
      <trkpt lat="49.18358" lon="1.72792">
        <ele>120.1</ele>
        <time>2010-01-01T00:00:00Z</time>
      </trkpt>
      <trkpt lat="49.18347" lon="1.72826">
        <ele>122.2</ele>
        <time>2010-01-01T00:00:00Z</time>
      </trkpt>
      <trkpt lat="49.18338" lon="1.72841">
        <ele>123.4</ele>
        <time>2010-01-01T00:00:00Z</time>
      </trkpt>
      <trkpt lat="49.18316" lon="1.7288">
        <ele>126.4</ele>
        <time>2010-01-01T00:00:00Z</time>
      </trkpt>
      <trkpt lat="49.18311" lon="1.7289">
        <ele>127.2</ele>
        <time>2010-01-01T00:00:00Z</time>
      </trkpt>
      <trkpt lat="49.18309" lon="1.72903">
        <ele>129</ele>
        <time>2010-01-01T00:00:00Z</time>
      </trkpt>
      <trkpt lat="49.1831" lon="1.72918">
        <ele>131.2</ele>
        <time>2010-01-01T00:00:00Z</time>
      </trkpt>
      <trkpt lat="49.18316" lon="1.72928">
        <ele>132.5</ele>
        <time>2010-01-01T00:00:00Z</time>
      </trkpt>
      <trkpt lat="49.18348" lon="1.72962">
        <ele>135.9</ele>
        <time>2010-01-01T00:00:00Z</time>
      </trkpt>
      <trkpt lat="49.18349" lon="1.72963">
        <ele>135.9</ele>
        <time>2010-01-01T00:00:00Z</time>
      </trkpt>
      <trkpt lat="49.18349" lon="1.72963">
        <ele>135.9</ele>
        <time>2010-01-01T00:00:00Z</time>
      </trkpt>
      <trkpt lat="49.18348" lon="1.72962">
        <ele>135.9</ele>
        <time>2010-01-01T00:00:00Z</time>
      </trkpt>
      <trkpt lat="49.18358" lon="1.72964">
        <ele>135.6</ele>
        <time>2010-01-01T00:00:00Z</time>
      </trkpt>
      <trkpt lat="49.18367" lon="1.72961">
        <ele>135</ele>
        <time>2010-01-01T00:00:00Z</time>
      </trkpt>
      <trkpt lat="49.18372" lon="1.72961">
        <ele>134.8</ele>
        <time>2010-01-01T00:00:00Z</time>
      </trkpt>
      <trkpt lat="49.18392" lon="1.7297">
        <ele>134.7</ele>
        <time>2010-01-01T00:00:00Z</time>
      </trkpt>
      <trkpt lat="49.18402" lon="1.72977">
        <ele>134.9</ele>
        <time>2010-01-01T00:00:00Z</time>
      </trkpt>
      <trkpt lat="49.18416" lon="1.72995">
        <ele>135.7</ele>
        <time>2010-01-01T00:00:00Z</time>
      </trkpt>
      <trkpt lat="49.18428" lon="1.73007">
        <ele>135.7</ele>
        <time>2010-01-01T00:00:00Z</time>
      </trkpt>
      <trkpt lat="49.18452" lon="1.73024">
        <ele>134.4</ele>
        <time>2010-01-01T00:00:00Z</time>
      </trkpt>
      <trkpt lat="49.18456" lon="1.73029">
        <ele>134</ele>
        <time>2010-01-01T00:00:00Z</time>
      </trkpt>
      <trkpt lat="49.18456" lon="1.73029">
        <ele>134</ele>
        <time>2010-01-01T00:00:00Z</time>
      </trkpt>
      <trkpt lat="49.18456" lon="1.73043">
        <ele>134.5</ele>
        <time>2010-01-01T00:00:00Z</time>
      </trkpt>
      <trkpt lat="49.1845" lon="1.73096">
        <ele>135.9</ele>
        <time>2010-01-01T00:00:00Z</time>
      </trkpt>
      <trkpt lat="49.18447" lon="1.73115">
        <ele>135.9</ele>
        <time>2010-01-01T00:00:00Z</time>
      </trkpt>
      <trkpt lat="49.18441" lon="1.73133">
        <ele>136.2</ele>
        <time>2010-01-01T00:00:00Z</time>
      </trkpt>
      <trkpt lat="49.18441" lon="1.73133">
        <ele>136.2</ele>
        <time>2010-01-01T00:00:00Z</time>
      </trkpt>
      <trkpt lat="49.18437" lon="1.73145">
        <ele>136.6</ele>
        <time>2010-01-01T00:00:00Z</time>
      </trkpt>
      <trkpt lat="49.18438" lon="1.73157">
        <ele>136.6</ele>
        <time>2010-01-01T00:00:00Z</time>
      </trkpt>
      <trkpt lat="49.18486" lon="1.73041">
        <ele>130.5</ele>
        <time>2010-01-01T00:00:00Z</time>
      </trkpt>
    </trkseg>
  </trk>
</gpx>